Regional Weather Roundup
Issued by NWS

Home | Current Version | Previous Version | Graphics & Text | Print | Product List | Glossary On
Versions: 1 2 3 4 5 6 7 8 9 10 11 12 13 14 15 16 17 18 19 20 21 22 23 24 25 26 27 28 29 30 31 32 33 34 35 36 37 38 39 40 41 42 43 44 45 46 47 48 49 50
000
ASUS43 KMPX 280110
RWRMN
WEATHER ROUNDUP FOR MINNESOTA
NATIONAL WEATHER SERVICE TWIN CITIES/CHANHASSEN MN
800 PM CDT FRI MAR 27 2015


NOTE: "FAIR" INDICATES FEW OR NO CLOUDS BELOW 12,000 FEET WITH NO
SIGNIFICANT WEATHER AND/OR OBSTRUCTIONS TO VISIBILITY. N/A MEANS
CURRENT SKY AND/OR WEATHER CONDITIONS ARE NOT AVAILABLE.

MNZ060>063-068>070-280200-
   Twin Cities Metro

CITY           SKY/WX    TMP DP  RH WIND       PRES   REMARKS
TWIN CITIES    MOCLDY    30   3  31 SW7       30.17R WCI  23
ST PAUL        MOCLDY    28   6  39 S5        30.18R WCI  23
CRYSTAL        MOCLDY    31   5  33 SW7       30.15S WCI  24
BLAINE         MOCLDY    32   9  37 SW6       30.15R WCI  26
LAKEVILLE      MOCLDY    27   9  46 CALM      30.16F
EDEN PRAIRIE   CLOUDY    28   8  43 S6        30.15F WCI  22
SOUTH ST PAUL  MOCLDY    30   6  35 S6        30.17S WCI  24
LAKE ELMO      FAIR      30  10  43 S7        30.17R WCI  23
$$
MNZ001>005-007-008-013>017-022>024-027-028-280200-
   Northwest Minnesota

CITY           SKY/WX    TMP DP  RH WIND       PRES   REMARKS
BEMIDJI        CLOUDY    31   6  35 S3        30.07F
HALLOCK        MOCLDY    30  21  69 S13       30.09S WCI  20
ROSEAU         PTCLDY    30  18  59 S3        30.10R
WARROAD        PTCLDY    27  18  69 CALM      30.10S
THIEF RVR FALL PTCLDY    30  18  59 S6        30.09S WCI  24
CROOKSTON      MOCLDY    28  21  74 S13       30.11S WCI  18
FOSSTON        CLOUDY    27  10  50 CALM      30.09S
DETROIT LAKES  CLOUDY    32  12  43 SW5       30.10S WCI  27
MOORHEAD       LGT RAIN  32  21  64 SE9       30.10F WCI  24
PARK RAPIDS    CLOUDY    31   9  39 SW6       30.08S WCI  25
MAHNOMEN       CLOUDY    29  13  50 S6        30.09S WCI  23
$$
MNZ006-009>011-018-025>026-280200-
   North Central Minnesota

CITY           SKY/WX    TMP DP  RH WIND       PRES   REMARKS
BAUDETTE       CLOUDY    29   9  43 E5        30.08F WCI  24
FLAG ISLAND    CLEAR     25   7  46 SE5       30.10R WCI  19
INTL FALLS     CLEAR     29   7  39 E5        30.09S WCI  24
WASKISH        PTCLDY    27  10  50 CALM      30.10S
BIG FORK       MOCLDY    30   5  34 CALM      30.10S
LONGVILLE      CLOUDY    30   5  34 CALM      30.10S
GRAND RAPIDS   CLOUDY    30   1  29 CALM      30.10S
CRANE LAKE     CLEAR     25  10  54 CALM      30.13R
ORR            PTCLDY    27   1  33 CALM      30.08R
COOK           PTCLDY    27   3  36 CALM      30.10S
WALKER         CLOUDY    30   9  41 CALM      30.09S
$$
MNZ012-019>021-037-280200-
   Northeast Minnesota

CITY           SKY/WX    TMP DP  RH WIND       PRES   REMARKS
DULUTH         PTCLDY    23   8  52 SE9       30.12R WCI  13
ELY            CLEAR     27   1  33 CALM      30.10R
HIBBING        PTCLDY    25   4  40 CALM      30.10R
EVELETH        CLEAR     28   5  37 CALM      30.11S
DULUTH HARBOR  PTCLDY    28  16  59 CALM      30.18S
TWO HARBORS    CLEAR     23  12  63 NE5       30.14S WCI  17
SILVER BAY     CLEAR     19   9  63 CALM      30.15S
GRAND MARAIS     N/A     19  10  68 CALM      30.22S
G MARAIS ARPRT PTCLDY    10   3  72 CALM      30.13S
$$
MNZ029>031-032-039>041-046>048-054>057-064-280200-
   West Central Minnesota

CITY           SKY/WX    TMP DP  RH WIND       PRES   REMARKS
FERGUS FALLS   CLOUDY    32   7  34 SE5       30.13S WCI  27
WHEATON        CLOUDY    30  19  64 CALM      30.12S
MORRIS         CLOUDY    32  19  59 SE8       30.09S WCI  25
ALEXANDRIA     CLOUDY    30  14  51 SE5       30.11S WCI  25
ELBOW LAKE     CLOUDY    31  15  50 SE6       30.10S WCI  25
WADENA         CLOUDY    28  10  47 SW5       30.10S WCI  23
GLENWOOD       CLOUDY    30  18  59 SE5       30.11S WCI  25
APPLETON         N/A     36  10  35 SE6       30.09S
BENSON         CLOUDY    34  14  44 S6        30.11R WCI  29
ORTONVILLE     CLOUDY    30  21  69 W5        30.09R WCI  25
MADISON        CLOUDY    36  10  35 CALM      30.09R
WILLMAR        FAIR      30  19  64 SE9       30.13R WCI  22
$$
MNZ033>034-036-042>043-049>051-058-059-280200-
   Central Minnesota

CITY           SKY/WX    TMP DP  RH WIND       PRES   REMARKS
ST CLOUD       CLOUDY    30  10  43 S9        30.14R WCI  22
SAUK CENTRE    CLOUDY    29  14  53 SE5       30.13S WCI  24
PAYNESVILLE    CLOUDY    26  12  55 E3        30.13S
AITKIN         CLOUDY    34   3  27 S3        30.10S
PINE RIVER     CLOUDY    30  10  43 SE3       30.13S
BRAINERD       CLOUDY    31   3  30 SE3       30.12R
STAPLES        CLOUDY    28   9  43 S3        30.10F
LONG PRAIRIE   CLOUDY    30  14  51 S5        30.12S WCI  25
LITTLE FALLS   CLOUDY    32   7  34 SW3       30.13R
LITCHFIELD     CLOUDY    28  18  64 SE5       30.13S WCI  23
BUFFALO        CLOUDY    28   7  40 CALM      30.16S
MAPLE LAKE     CLOUDY    30  10  42 CALM      30.16R
$$
MNZ037-044-045-052-053-280200-
   East Central Minnesota

CITY           SKY/WX    TMP DP  RH WIND       PRES   REMARKS
PRINCETON      MOCLDY    30   3  31 S3        30.14S
MORA           MOCLDY    30   3  31 CALM      30.15F
CAMBRIDGE      MOCLDY    30  10  43 CALM      30.13S
RUSH CITY      PTCLDY    29   2  31 CALM      30.14S
MOOSE LAKE     MOCLDY    30   3  31 CALM      30.11S
HINCKLEY       FAIR      30  14  51 CALM      30.14S
CLOQUET        MOCLDY    27   5  39 SE6       30.12S WCI  20
MCGREGOR       CLOUDY    32   5  32 CALM      30.12S
$$
MNZ071>073-080-081-089-090-097-098-280200-
   Southwest Minnesota

CITY           SKY/WX    TMP DP  RH WIND       PRES   REMARKS
MONTEVIDEO     CLOUDY    34  16  47 S9        30.11S WCI  26
GRANITE FALLS  CLOUDY    31  21  65 E6        30.11S WCI  26
CANBY          CLOUDY    33  19  57 SW6       30.09S WCI  28
MARSHALL       CLOUDY    34  10  37 S7        30.09S WCI  28
REDWOOD FALLS  CLOUDY    31  19  61 E7        30.11S WCI  24
OLIVIA         CLOUDY    28  18  64 E12       30.11S WCI  18
PIPESTONE      CLOUDY    32  19  59 SW8       30.04S WCI  25
WINDOM         CLOUDY    34  10  37 CALM      30.10S
WORTHINGTON    CLOUDY    30  12  47 SW9       30.09S WCI  22
JACKSON        CLOUDY    34  12  40 S3        30.10S
TRACY          CLOUDY    34  16  48 S5        30.09S WCI  29
SLAYTON        CLOUDY    32  10  39 CALM      30.08S
$$
MNZ065>067-074>077-082>085-091>093-280200-
   South Central Minnesota

CITY           SKY/WX    TMP DP  RH WIND       PRES   REMARKS
MANKATO        CLOUDY    30  12  47 E6        30.14S WCI  24
NEW ULM        CLOUDY    30  16  55 SE6       30.13R WCI  24
ST JAMES       CLOUDY    34  21  60 E5        30.13S WCI  30
FAIRMONT       PTCLDY    32  10  40 S5        30.11S WCI  27
GLENCOE        CLOUDY    29  17  61 E6        30.14S WCI  23
FARIBAULT      MOCLDY    27  16  63 E5        30.16S WCI  21
OWATONNA       MOCLDY    27  12  54 E6        30.15S WCI  20
WASECA         MOCLDY    28  16  59 E7        30.16S WCI  21
ALBERT LEA     MOCLDY    28  16  59 E7        30.14S WCI  21
$$
MNZ078>079-086>088-094>096-280200-
   Southeast Minnesota

CITY           SKY/WX    TMP DP  RH WIND       PRES   REMARKS
ROCHESTER      MOCLDY    24  12  60 W3        30.16S
RED WING       MOCLDY    28   3  34 SW8       30.17S WCI  20
STANTON        MOCLDY    27  11  49 S5        30.16S WCI  22
DODGE CENTER   MOCLDY    23  10  58 CALM      30.15S
WINONA         CLEAR     30  10  43 CALM      30.19S
AUSTIN         MOCLDY    25  14  63 E3        30.15S
PRESTON        PTCLDY    24  12  60 CALM      30.16S
$$
ABBREVIATIONS USED IN REMARKS
   TC - TEMPERATURES IN CELSIUS
  WCI - WIND CHILL INDEX
   HX - HEAT INDEX
  VSB - VISIBILITY
$$


USA.gov is the U.S. government's official web portal to all federal, state and local government web resources and services.